User: anonymous   Login
Location: Ch�teau-Arnoux
(44.0814°N, 6.0027°E)
Time: 15:21:38
(UTC+00:00)
Language:

SL-27 R/B - Orbit

View from above orbital plane
View from above orbital plane
View from above satellite
View from above satellite

Ground track
Ground track

The orbit data is extracted from the following two-line orbital elements,

1 40354U 14084B   20021.15559854  .00000600  00000-0  16005-4 0  9992
2 40354  74.7390 334.8416 0039267 239.9434 119.7881 15.39993432285703
Epoch (UTC): 21 January 2020 03:44:03
Eccentricity: 0.0039267
inclination: 74.7390°
perigee height: 419 km
apogee height: 473 km
right ascension of ascending node: 334.8416°
argument of perigee: 239.9434°
revolutions per day: 15.39993432
mean anomaly at epoch: 119.7881°
orbit number at epoch: 28570

The dashed part of the orbit path shows where the satellite is in the earth's shadow,  

DLR